• In Latvia
  • List of Countries
  • For 7 days
  • Water Temperature
  • Satellite Maps
  • Weather Map
  • Weather Widgets
  • user-avatar
    Login

    Hourly Weather Lankaran

    Today, 23 August, Wednesday

    Time Temperature Precipitation Wind Pressure Humidity
    00:00 +20°C° 0 mm 1 mps 632 mmHg 57%
    01:00 +20°C° 0 mm 1 mps 632 mmHg 57%
    02:00 +19°C° 0 mm 1 mps 632 mmHg 57%
    03:00 +19°C° 0 mm 1 mps 632 mmHg 52%
    04:00 +20°C° 0 mm 1 mps 632 mmHg 51%
    05:00 +20°C° 0 mm 1 mps 633 mmHg 51%
    06:00 +20°C° 0 mm 1 mps 633 mmHg 50%
    07:00 +23°C° 0 mm 2 mps 634 mmHg 43%
    08:00 +25°C° 0 mm 2 mps 634 mmHg 37%
    09:00 +28°C° 0 mm 3 mps 635 mmHg 30%
    10:00 +29°C° 0 mm 3 mps 635 mmHg 28%
    11:00 +30°C° 0 mm 3 mps 636 mmHg 26%
    12:00 +32°C° 0 mm 4 mps 636 mmHg 24%
    13:00 +32°C° 0 mm 4 mps 635 mmHg 25%
    14:00 +32°C° 0 mm 4 mps 635 mmHg 25%
    15:00 +32°C° 0 mm 4 mps 635 mmHg 26%
    16:00 +29°C° 0 mm 3 mps 634 mmHg 34%
    17:00 +27°C° 0 mm 3 mps 634 mmHg 41%
    18:00 +25°C° 0 mm 2 mps 634 mmHg 49%
    19:00 +24°C° 0 mm 2 mps 634 mmHg 55%
    20:00 +21°C° 0 mm 2 mps 634 mmHg 62%
    21:00 +20°C° 0 mm 1 mps 634 mmHg 68%
    22:00 +20°C° 0 mm 1 mps 634 mmHg 67%
    23:00 +20°C° 0 mm 1 mps 634 mmHg 66%

    Tomorrow, 24 August, Thursday

    Time Temperature Precipitation Wind Pressure Humidity
    00:00 +19°C° 0 mm 1 mps 634 mmHg 65%
    01:00 +18°C° 0 mm 2 mps 634 mmHg 65%
    02:00 +18°C° 0 mm 2 mps 634 mmHg 66%
    03:00 +17°C° 0 mm 2 mps 634 mmHg 66%
    04:00 +18°C° 0 mm 2 mps 634 mmHg 65%
    05:00 +18°C° 0 mm 2 mps 635 mmHg 64%
    06:00 +18°C° 0 mm 2 mps 635 mmHg 62%
    07:00 +21°C° 0 mm 3 mps 636 mmHg 52%
    08:00 +24°C° 0 mm 3 mps 637 mmHg 43%
    09:00 +26°C° 0 mm 4 mps 638 mmHg 33%
    10:00 +27°C° 0 mm 4 mps 638 mmHg 29%
    11:00 +29°C° 0 mm 5 mps 638 mmHg 25%
    12:00 +30°C° 0 mm 5 mps 638 mmHg 21%
    13:00 +29°C° 0 mm 5 mps 638 mmHg 21%
    14:00 +29°C° 0 mm 5 mps 638 mmHg 20%
    15:00 +29°C° 0 mm 4 mps 637 mmHg 20%
    16:00 +27°C° 0 mm 4 mps 637 mmHg 25%
    17:00 +25°C° 0 mm 3 mps 636 mmHg 29%
    18:00 +24°C° 0 mm 3 mps 636 mmHg 34%
    19:00 +21°C° 0 mm 2 mps 636 mmHg 39%
    20:00 +19°C° 0 mm 2 mps 636 mmHg 44%
    21:00 +18°C° 0 mm 2 mps 636 mmHg 49%
    22:00 +19°C° 0 mm 1 mps 636 mmHg 45%
    23:00 +18°C° 0 mm 1 mps 636 mmHg 41%

    Day after tomorrow, 25 August, Friday

    Time Temperature Precipitation Wind Pressure Humidity
    00:00 +18°C° 0 mm 1 mps 636 mmHg 38%
    01:00 +18°C° 0 mm 1 mps 636 mmHg 36%
    02:00 +18°C° 0 mm 1 mps 636 mmHg 35%
    03:00 +16°C° 0 mm 1 mps 636 mmHg 34%
    04:00 +18°C° 0 mm 1 mps 636 mmHg 34%
    05:00 +17°C° 0 mm 2 mps 636 mmHg 34%
    06:00 +17°C° 0 mm 2 mps 636 mmHg 34%
    07:00 +20°C° 0 mm 2 mps 637 mmHg 29%
    08:00 +22°C° 0 mm 3 mps 638 mmHg 24%
    09:00 +25°C° 0 mm 3 mps 639 mmHg 19%
    10:00 +26°C° 0 mm 3 mps 639 mmHg 18%
    11:00 +27°C° 0 mm 4 mps 639 mmHg 17%
    12:00 +28°C° 0 mm 4 mps 638 mmHg 17%
    13:00 +28°C° 0 mm 4 mps 638 mmHg 18%
    14:00 +28°C° 0 mm 4 mps 638 mmHg 19%
    15:00 +28°C° 0 mm 4 mps 637 mmHg 20%
    16:00 +26°C° 0 mm 4 mps 637 mmHg 26%
    17:00 +24°C° 0 mm 3 mps 636 mmHg 33%
    18:00 +22°C° 0 mm 3 mps 636 mmHg 40%
    19:00 +20°C° 0 mm 3 mps 636 mmHg 46%
    20:00 +18°C° 0 mm 2 mps 636 mmHg 52%
    21:00 +17°C° 0 mm 2 mps 636 mmHg 59%
    22:00 +16°C° 0 mm 2 mps 636 mmHg 55%
    23:00 +16°C° 0 mm 2 mps 636 mmHg 51%

    26 August, Saturday

    Time Temperature Precipitation Wind Pressure Humidity
    00:00 +16°C° 0 mm 2 mps 636 mmHg 47%
    01:00 +15°C° 0 mm 2 mps 635 mmHg 48%
    02:00 +15°C° 0 mm 2 mps 635 mmHg 49%
    03:00 +15°C° 0 mm 2 mps 635 mmHg 50%
    04:00 +15°C° 0 mm 2 mps 636 mmHg 53%
    05:00 +15°C° 0 mm 2 mps 636 mmHg 55%
    06:00 +15°C° 0 mm 2 mps 636 mmHg 58%
    07:00 +18°C° 0 mm 3 mps 637 mmHg 50%
    08:00 +20°C° 0 mm 3 mps 637 mmHg 42%
    09:00 +22°C° 0 mm 4 mps 638 mmHg 34%
    10:00 +23°C° 0 mm 4 mps 638 mmHg 32%
    11:00 +25°C° 0 mm 4 mps 638 mmHg 31%
    12:00 +26°C° 0 mm 4 mps 638 mmHg 30%
    13:00 +26°C° 0 mm 4 mps 637 mmHg 31%
    14:00 +26°C° 0 mm 4 mps 637 mmHg 32%
    15:00 +26°C° 0 mm 5 mps 636 mmHg 34%
    16:00 +23°C° 0 mm 4 mps 636 mmHg 42%
    17:00 +21°C° 0 mm 4 mps 636 mmHg 50%
    18:00 +19°C° 0 mm 3 mps 635 mmHg 58%
    19:00 +18°C° 0 mm 3 mps 635 mmHg 64%
    20:00 +16°C° 0 mm 2 mps 635 mmHg 71%
    21:00 +15°C° 0 mm 2 mps 635 mmHg 78%
    22:00 +15°C° 0 mm 2 mps 635 mmHg 77%
    23:00 +15°C° 0 mm 2 mps 635 mmHg 77%

    27 August, Sunday

    Time Temperature Precipitation Wind Pressure Humidity
    00:00 +14°C° 0 mm 2 mps 635 mmHg 76%
    01:00 +14°C° 0 mm 2 mps 635 mmHg 77%
    02:00 +14°C° 0 mm 2 mps 635 mmHg 77%
    03:00 +14°C° 0 mm 2 mps 634 mmHg 78%
    04:00 +14°C° 0 mm 2 mps 635 mmHg 79%
    05:00 +14°C° 0 mm 2 mps 635 mmHg 81%
    06:00 +15°C° 0 mm 2 mps 635 mmHg 82%
    07:00 +17°C° 0 mm 2 mps 636 mmHg 73%
    08:00 +18°C° 0 mm 3 mps 636 mmHg 64%
    09:00 +20°C° 0 mm 3 mps 637 mmHg 54%
    10:00 +22°C° 0 mm 3 mps 637 mmHg 50%
    11:00 +23°C° 0 mm 4 mps 637 mmHg 46%
    12:00 +25°C° 0 mm 4 mps 637 mmHg 41%
    13:00 +25°C° 0 mm 4 mps 636 mmHg 42%
    14:00 +25°C° 0 mm 4 mps 636 mmHg 43%
    15:00 +25°C° 0 mm 4 mps 636 mmHg 43%
    16:00 +22°C° 0 mm 3 mps 635 mmHg 50%
    17:00 +21°C° 0 mm 3 mps 635 mmHg 57%
    18:00 +19°C° 0 mm 2 mps 635 mmHg 64%
    19:00 +18°C° 0 mm 2 mps 635 mmHg 70%
    20:00 +17°C° 0 mm 2 mps 635 mmHg 75%
    21:00 +16°C° 0 mm 1 mps 635 mmHg 80%
    22:00 +15°C° 0 mm 1 mps 635 mmHg 79%
    23:00 +15°C° 0 mm 1 mps 634 mmHg 78%

    28 August, Monday

    Time Temperature Precipitation Wind Pressure Humidity
    00:00 +15°C° 0 mm 1 mps 634 mmHg 76%
    01:00 +15°C° 0 mm 1 mps 634 mmHg 75%
    02:00 +14°C° 0 mm 1 mps 634 mmHg 74%
    03:00 +14°C° 0 mm 1 mps 634 mmHg 73%
    04:00 +14°C° 0 mm 1 mps 634 mmHg 71%
    05:00 +15°C° 0 mm 1 mps 635 mmHg 69%
    06:00 +15°C° 0 mm 1 mps 635 mmHg 68%
    07:00 +17°C° 0 mm 2 mps 635 mmHg 60%
    08:00 +19°C° 0 mm 2 mps 636 mmHg 52%
    09:00 +21°C° 0 mm 2 mps 637 mmHg 45%
    10:00 +24°C° 0 mm 3 mps 637 mmHg 42%
    11:00 +25°C° 0 mm 3 mps 636 mmHg 39%
    12:00 +26°C° 0 mm 3 mps 636 mmHg 36%
    13:00 +26°C° 0 mm 3 mps 636 mmHg 37%
    14:00 +26°C° 0 mm 3 mps 636 mmHg 38%
    15:00 +26°C° 0 mm 3 mps 635 mmHg 39%
    16:00 +25°C° 0 mm 3 mps 635 mmHg 47%
    17:00 +23°C° 0 mm 2 mps 634 mmHg 54%
    18:00 +21°C° 0 mm 2 mps 634 mmHg 61%
    19:00 +19°C° 0 mm 2 mps 634 mmHg 66%
    20:00 +19°C° 0 mm 1 mps 634 mmHg 71%
    21:00 +18°C° 0 mm 1 mps 634 mmHg 77%
    22:00 +18°C° 0 mm 1 mps 634 mmHg 76%
    23:00 +18°C° 0 mm 1 mps 634 mmHg 76%
    Show more